{"data":{"norad_id":67110,"intl_designator":"2025-299J","name":"STARLINK-35781","alt_names":[],"object_type":"PAYLOAD","status":"ACTIVE","operator":null,"country":"US","launch_date":"2025-12-15","launch_site_code":"AFETR","launch_vehicle":null,"mission":null,"orbit_class":"UNKNOWN","rcs_meters":null,"size_class":null,"mass_kg":null,"dimensions":null,"purposes":["comms"],"wikipedia_slug":null,"has_3d_model":false,"image_url":null,"decayed_at":null,"tle_current":{"epoch":"2026-09-19T22:57:52.183008Z","epoch_age_seconds":125653,"freshness":"FRESH","line1":"1 67110U 25299J   26262.95685397  .00011823  00000+0  43839-3 0  9996","line2":"2 67110  43.0022 152.1564 0000778 257.8819 102.1945 15.27586333 42825","mean_motion":15.27586333,"eccentricity":7.78e-5,"inclination_deg":43.0022,"raan_deg":152.1564,"arg_perigee_deg":257.8819,"mean_anomaly_deg":102.1945,"bstar":0.00043839,"rev_number":4282,"period_min":94.266357906725,"perigee_km":482.49633402195,"apogee_km":483.56393162782,"semimajor_km":6861.1671328249,"source":"CELESTRAK","updated_at":"2026-09-21T09:00:36.105261Z"}}}